Year,Month,Day,Hour,Minute,Value (Times are PST for windgust in km/hr)
2010,05,03,00,00,19.30
2010,05,03,00,01,27.40
2010,05,03,00,02,17.70
2010,05,03,00,03,27.40
2010,05,03,00,04,20.90
2010,05,03,00,05,22.50
2010,05,03,00,06,11.30
2010,05,03,00,07,16.10
2010,05,03,00,08,16.10
2010,05,03,00,09,11.30
2010,05,03,00,10,16.10
2010,05,03,00,11,20.90
2010,05,03,00,12,29.00
2010,05,03,00,13,22.50
2010,05,03,00,14,11.30
2010,05,03,00,15,20.90
2010,05,03,00,16,20.90
2010,05,03,00,17,20.90
2010,05,03,00,18,24.20
2010,05,03,00,19,16.10
2010,05,03,00,20,30.60
2010,05,03,00,21,25.70
2010,05,03,00,22,16.10
2010,05,03,00,23,22.50
2010,05,03,00,24,22.50
2010,05,03,00,25,19.30
2010,05,03,00,26,32.20
2010,05,03,00,27,20.90
2010,05,03,00,28,14.50
2010,05,03,00,29,16.10
2010,05,03,00,30,25.70
2010,05,03,00,31,27.40
2010,05,03,00,32,20.90
2010,05,03,00,33,22.50
2010,05,03,00,34,25.70
2010,05,03,00,35,17.70
2010,05,03,00,36,27.40
2010,05,03,00,37,19.30
2010,05,03,00,38,27.40
2010,05,03,00,39,22.50
2010,05,03,00,40,33.80
2010,05,03,00,41,24.20
2010,05,03,00,42,8.10
2010,05,03,00,43,14.50
2010,05,03,00,44,16.10
2010,05,03,00,45,35.40
2010,05,03,00,46,17.70
2010,05,03,00,47,24.20
2010,05,03,00,48,22.50
2010,05,03,00,49,20.90
2010,05,03,00,50,19.30
2010,05,03,00,51,14.50
2010,05,03,00,52,11.30
2010,05,03,00,53,22.50
2010,05,03,00,54,25.70
2010,05,03,00,55,40.20
2010,05,03,00,56,17.70
2010,05,03,00,57,16.10
2010,05,03,00,58,19.30
2010,05,03,00,59,24.20
2010,05,03,01,00,19.30
2010,05,03,01,01,22.50
2010,05,03,01,02,22.50
2010,05,03,01,03,22.50
2010,05,03,01,04,27.40
2010,05,03,01,05,17.70
2010,05,03,01,06,14.50
2010,05,03,01,07,11.30
2010,05,03,01,08,8.10
2010,05,03,01,09,11.30
2010,05,03,01,10,17.70
2010,05,03,01,11,16.10
2010,05,03,01,12,17.70
2010,05,03,01,13,9.60
2010,05,03,01,14,14.50
2010,05,03,01,15,14.50
2010,05,03,01,16,19.30
2010,05,03,01,17,9.60
2010,05,03,01,18,22.50
2010,05,03,01,19,22.50
2010,05,03,01,20,16.10
2010,05,03,01,21,20.90
2010,05,03,01,22,19.30
2010,05,03,01,23,19.30
2010,05,03,01,24,12.90
2010,05,03,01,25,17.70
2010,05,03,01,26,4.80
2010,05,03,01,27,8.10
2010,05,03,01,28,9.60
2010,05,03,01,29,4.80
2010,05,03,01,30,6.40
2010,05,03,01,31,4.80
2010,05,03,01,32,9.60
2010,05,03,01,33,8.10
2010,05,03,01,34,4.80
2010,05,03,01,35,14.50
2010,05,03,01,36,11.30
2010,05,03,01,37,16.10
2010,05,03,01,38,19.30
2010,05,03,01,39,14.50
2010,05,03,01,40,9.60
2010,05,03,01,41,6.40
2010,05,03,01,42,14.50
2010,05,03,01,43,16.10
2010,05,03,01,44,6.40
2010,05,03,01,45,8.10
2010,05,03,01,46,11.30
2010,05,03,01,47,11.30
2010,05,03,01,48,14.50
2010,05,03,01,49,8.10
2010,05,03,01,50,17.70
2010,05,03,01,51,16.10
2010,05,03,01,52,6.40
2010,05,03,01,53,4.80
2010,05,03,01,54,8.10
2010,05,03,01,55,19.30
2010,05,03,01,56,12.90
2010,05,03,01,57,8.10
2010,05,03,01,58,1.60
2010,05,03,01,59,4.80
2010,05,03,02,00,3.20
2010,05,03,02,01,1.60
2010,05,03,02,02,11.30
2010,05,03,02,03,3.20
2010,05,03,02,04,6.40
2010,05,03,02,06,4.80
2010,05,03,02,10,1.60
2010,05,03,02,11,3.20
2010,05,03,02,12,1.60
2010,05,03,02,14,3.20
2010,05,03,02,15,8.10
2010,05,03,02,16,9.60
2010,05,03,02,17,9.60
2010,05,03,02,18,6.40
2010,05,03,02,19,6.40
2010,05,03,02,20,3.20
2010,05,03,02,21,4.80
2010,05,03,02,22,1.60
2010,05,03,02,23,8.10
2010,05,03,02,24,4.80
2010,05,03,02,26,4.80
2010,05,03,02,27,4.80
2010,05,03,02,28,9.60
2010,05,03,02,29,9.60
2010,05,03,02,30,14.50
2010,05,03,02,31,14.50
2010,05,03,02,32,3.20
2010,05,03,02,33,8.10
2010,05,03,02,34,6.40
2010,05,03,02,35,16.10
2010,05,03,02,36,30.60
2010,05,03,02,37,25.70
2010,05,03,02,38,16.10
2010,05,03,02,39,17.70
2010,05,03,02,40,35.40
2010,05,03,02,41,27.40
2010,05,03,02,42,11.30
2010,05,03,02,43,24.20
2010,05,03,02,44,22.50
2010,05,03,02,45,27.40
2010,05,03,02,46,27.40
2010,05,03,02,47,27.40
2010,05,03,02,48,29.00
2010,05,03,02,49,27.40
2010,05,03,02,50,20.90
2010,05,03,02,51,20.90
2010,05,03,02,52,17.70
2010,05,03,02,53,22.50
2010,05,03,02,54,22.50
2010,05,03,02,55,16.10
2010,05,03,02,56,8.10
2010,05,03,02,57,19.30
2010,05,03,02,58,19.30
2010,05,03,02,59,14.50
2010,05,03,03,00,12.90
2010,05,03,03,01,27.40
2010,05,03,03,02,16.10
2010,05,03,03,03,20.90
2010,05,03,03,04,14.50
2010,05,03,03,05,11.30
2010,05,03,03,06,9.60
2010,05,03,03,07,19.30
2010,05,03,03,08,17.70
2010,05,03,03,09,9.60
2010,05,03,03,10,6.40
2010,05,03,03,11,9.60
2010,05,03,03,12,12.90
2010,05,03,03,13,8.10
2010,05,03,03,14,14.50
2010,05,03,03,15,8.10
2010,05,03,03,16,9.60
2010,05,03,03,17,3.20
2010,05,03,03,18,8.10
2010,05,03,03,19,8.10
2010,05,03,03,20,6.40
2010,05,03,03,21,4.80
2010,05,03,03,22,6.40
2010,05,03,03,23,6.40
2010,05,03,03,24,6.40
2010,05,03,03,25,3.20
2010,05,03,03,26,11.30
2010,05,03,03,27,17.70
2010,05,03,03,28,12.90
2010,05,03,03,29,14.50
2010,05,03,03,30,8.10
2010,05,03,03,31,12.90
2010,05,03,03,32,19.30
2010,05,03,03,33,11.30
2010,05,03,03,34,16.10
2010,05,03,03,35,11.30
2010,05,03,03,36,14.50
2010,05,03,03,37,9.60
2010,05,03,03,38,9.60
2010,05,03,03,39,9.60
2010,05,03,03,40,27.40
2010,05,03,03,41,14.50
2010,05,03,03,42,17.70
2010,05,03,03,43,9.60
2010,05,03,03,44,8.10
2010,05,03,03,45,6.40
2010,05,03,03,46,11.30
2010,05,03,03,47,17.70
2010,05,03,03,48,20.90
2010,05,03,03,49,6.40
2010,05,03,03,50,16.10
2010,05,03,03,51,8.10
2010,05,03,03,52,9.60
2010,05,03,03,53,11.30
2010,05,03,03,54,20.90
2010,05,03,03,55,16.10
2010,05,03,03,56,11.30
2010,05,03,03,57,6.40
2010,05,03,03,58,8.10
2010,05,03,03,59,1.60
2010,05,03,04,00,4.80
2010,05,03,04,01,11.30
2010,05,03,04,02,22.50
2010,05,03,04,03,8.10
2010,05,03,04,05,8.10
2010,05,03,04,07,14.50
2010,05,03,04,09,9.60
2010,05,03,04,10,3.20
2010,05,03,04,11,11.30
2010,05,03,04,12,24.20
2010,05,03,04,13,19.30
2010,05,03,04,14,16.10
2010,05,03,04,15,17.70
2010,05,03,04,16,9.60
2010,05,03,04,17,11.30
2010,05,03,04,18,6.40
2010,05,03,04,19,9.60
2010,05,03,04,20,11.30
2010,05,03,04,21,17.70
2010,05,03,04,22,17.70
2010,05,03,04,23,14.50
2010,05,03,04,24,6.40
2010,05,03,04,25,12.90
2010,05,03,04,26,9.60
2010,05,03,04,27,3.20
2010,05,03,04,28,14.50
2010,05,03,04,29,6.40
2010,05,03,04,30,17.70
2010,05,03,04,31,17.70
2010,05,03,04,32,16.10
2010,05,03,04,33,16.10
2010,05,03,04,34,9.60
2010,05,03,04,35,14.50
2010,05,03,04,36,19.30
2010,05,03,04,37,16.10
2010,05,03,04,38,14.50
2010,05,03,04,39,14.50
2010,05,03,04,40,11.30
2010,05,03,04,41,9.60
2010,05,03,04,42,22.50
2010,05,03,04,43,35.40
2010,05,03,04,44,14.50
2010,05,03,04,45,16.10
2010,05,03,04,46,19.30
2010,05,03,04,47,16.10
2010,05,03,04,48,9.60
2010,05,03,04,49,19.30
2010,05,03,04,50,20.90
2010,05,03,04,51,24.20
2010,05,03,04,52,27.40
2010,05,03,04,53,17.70
2010,05,03,04,54,16.10
2010,05,03,04,55,11.30
2010,05,03,04,56,20.90
2010,05,03,04,57,29.00
2010,05,03,04,58,20.90
2010,05,03,04,59,24.20
2010,05,03,05,00,9.60
2010,05,03,05,01,11.30
2010,05,03,05,02,11.30
2010,05,03,05,03,20.90
2010,05,03,05,04,16.10
2010,05,03,05,05,11.30
2010,05,03,05,06,27.40
2010,05,03,05,07,33.80
2010,05,03,05,08,40.20
2010,05,03,05,09,25.70
2010,05,03,05,10,25.70
2010,05,03,05,11,16.10
2010,05,03,05,12,16.10
2010,05,03,05,13,29.00
2010,05,03,05,14,14.50
2010,05,03,05,15,17.70
2010,05,03,05,16,24.20
2010,05,03,05,17,22.50
2010,05,03,05,18,29.00
2010,05,03,05,19,33.80
2010,05,03,05,20,33.80
2010,05,03,05,21,40.20
2010,05,03,05,22,33.80
2010,05,03,05,23,24.20
2010,05,03,05,24,19.30
2010,05,03,05,25,32.20
2010,05,03,05,26,29.00
2010,05,03,05,27,32.20
2010,05,03,05,28,27.40
2010,05,03,05,29,37.00
2010,05,03,05,30,33.80
2010,05,03,05,31,35.40
2010,05,03,05,32,37.00
2010,05,03,05,33,20.90
2010,05,03,05,34,27.40
2010,05,03,05,35,20.90
2010,05,03,05,36,24.20
2010,05,03,05,37,49.90
2010,05,03,05,38,41.80
2010,05,03,05,39,41.80
2010,05,03,05,40,35.40
2010,05,03,05,41,38.60
2010,05,03,05,42,49.90
2010,05,03,05,43,33.80
2010,05,03,05,44,38.60
2010,05,03,05,45,45.10
2010,05,03,05,46,38.60
2010,05,03,05,47,32.20
2010,05,03,05,48,29.00
2010,05,03,05,49,25.70
2010,05,03,05,50,38.60
2010,05,03,05,51,32.20
2010,05,03,05,52,27.40
2010,05,03,05,53,16.10
2010,05,03,05,54,32.20
2010,05,03,05,55,40.20
2010,05,03,05,56,35.40
2010,05,03,05,57,38.60
2010,05,03,05,58,37.00
2010,05,03,05,59,45.10
2010,05,03,06,00,43.50
2010,05,03,06,01,46.70
2010,05,03,06,02,35.40
2010,05,03,06,03,38.60
2010,05,03,06,04,45.10
2010,05,03,06,05,35.40
2010,05,03,06,06,32.20
2010,05,03,06,07,38.60
2010,05,03,06,08,38.60
2010,05,03,06,09,33.80
2010,05,03,06,10,35.40
2010,05,03,06,11,40.20
2010,05,03,06,12,43.50
2010,05,03,06,13,53.10
2010,05,03,06,14,43.50
2010,05,03,06,15,35.40
2010,05,03,06,16,40.20
2010,05,03,06,17,29.00
2010,05,03,06,18,35.40
2010,05,03,06,19,37.00
2010,05,03,06,20,57.90
2010,05,03,06,21,40.20
2010,05,03,06,22,41.80
2010,05,03,06,23,37.00
2010,05,03,06,24,40.20
2010,05,03,06,25,33.80
2010,05,03,06,26,43.50
2010,05,03,06,27,30.60
2010,05,03,06,28,45.10
2010,05,03,06,29,40.20
2010,05,03,06,30,40.20
2010,05,03,06,31,54.70
2010,05,03,06,32,37.00
2010,05,03,06,33,40.20
2010,05,03,06,34,49.90
2010,05,03,06,35,48.30
2010,05,03,06,36,29.00
2010,05,03,06,37,33.80
2010,05,03,06,38,30.60
2010,05,03,06,39,45.10
2010,05,03,06,40,27.40
2010,05,03,06,41,29.00
2010,05,03,06,42,38.60
2010,05,03,06,43,53.10
2010,05,03,06,44,41.80
2010,05,03,06,45,38.60
2010,05,03,06,46,33.80
2010,05,03,06,47,32.20
2010,05,03,06,48,32.20
2010,05,03,06,49,40.20
2010,05,03,06,50,43.50
2010,05,03,06,51,38.60
2010,05,03,06,52,46.70
2010,05,03,06,53,35.40
2010,05,03,06,54,49.90
2010,05,03,06,55,41.80
2010,05,03,06,56,33.80
2010,05,03,06,57,48.30
2010,05,03,06,58,38.60
2010,05,03,06,59,45.10
2010,05,03,07,00,48.30
2010,05,03,07,01,35.40
2010,05,03,07,02,32.20
2010,05,03,07,03,30.60
2010,05,03,07,04,33.80
2010,05,03,07,05,29.00
2010,05,03,07,06,27.40
2010,05,03,07,07,40.20
2010,05,03,07,08,49.90
2010,05,03,07,09,37.00
2010,05,03,07,10,43.50
2010,05,03,07,11,30.60
2010,05,03,07,12,37.00
2010,05,03,07,13,33.80
2010,05,03,07,14,37.00
2010,05,03,07,15,40.20
2010,05,03,07,16,30.60
2010,05,03,07,17,46.70
2010,05,03,07,18,53.10
2010,05,03,07,19,30.60
2010,05,03,07,20,40.20
2010,05,03,07,21,32.20
2010,05,03,07,22,33.80
2010,05,03,07,23,30.60
2010,05,03,07,24,41.80
2010,05,03,07,25,32.20
2010,05,03,07,26,41.80
2010,05,03,07,27,33.80
2010,05,03,07,28,32.20
2010,05,03,07,29,45.10
2010,05,03,07,30,33.80
2010,05,03,07,31,20.90
2010,05,03,07,32,46.70
2010,05,03,07,33,40.20
2010,05,03,07,34,49.90
2010,05,03,07,35,46.70
2010,05,03,07,36,37.00
2010,05,03,07,37,48.30
2010,05,03,07,38,35.40
2010,05,03,07,39,30.60
2010,05,03,07,40,48.30
2010,05,03,07,41,41.80
2010,05,03,07,42,48.30
2010,05,03,07,43,43.50
2010,05,03,07,44,38.60
2010,05,03,07,45,16.10
2010,05,03,07,46,24.20
2010,05,03,07,47,32.20
2010,05,03,07,48,17.70
2010,05,03,07,49,48.30
2010,05,03,07,50,33.80
2010,05,03,07,51,37.00
2010,05,03,07,52,38.60
2010,05,03,07,53,29.00
2010,05,03,07,54,49.90
2010,05,03,07,55,51.50
2010,05,03,07,56,32.20
2010,05,03,07,57,35.40
2010,05,03,07,58,38.60
2010,05,03,07,59,37.00
2010,05,03,08,00,53.10
2010,05,03,08,01,54.70
2010,05,03,08,02,51.50
2010,05,03,08,03,43.50
2010,05,03,08,04,35.40
2010,05,03,08,05,41.80
2010,05,03,08,06,46.70
2010,05,03,08,07,56.30
2010,05,03,08,08,38.60
2010,05,03,08,09,49.90
2010,05,03,08,10,48.30
2010,05,03,08,11,40.20
2010,05,03,08,12,53.10
2010,05,03,08,13,38.60
2010,05,03,08,14,38.60
2010,05,03,08,15,49.90
2010,05,03,08,16,43.50
2010,05,03,08,17,46.70
2010,05,03,08,18,33.80
2010,05,03,08,19,38.60
2010,05,03,08,20,43.50
2010,05,03,08,21,49.90
2010,05,03,08,22,41.80
2010,05,03,08,23,41.80
2010,05,03,08,24,32.20
2010,05,03,08,25,43.50
2010,05,03,08,26,24.20
2010,05,03,08,27,37.00
2010,05,03,08,28,35.40
2010,05,03,08,29,40.20
2010,05,03,08,30,35.40
2010,05,03,08,31,32.20
2010,05,03,08,32,29.00
2010,05,03,08,33,24.20
2010,05,03,08,34,29.00
2010,05,03,08,35,48.30
2010,05,03,08,36,24.20
2010,05,03,08,37,43.50
2010,05,03,08,38,35.40
2010,05,03,08,39,32.20
2010,05,03,08,40,25.70
2010,05,03,08,41,48.30
2010,05,03,08,42,43.50
2010,05,03,08,43,33.80
2010,05,03,08,44,29.00
2010,05,03,08,45,38.60
2010,05,03,08,46,38.60
2010,05,03,08,47,35.40
2010,05,03,08,48,43.50
2010,05,03,08,49,43.50
2010,05,03,08,50,35.40
2010,05,03,08,51,30.60
2010,05,03,08,52,27.40
2010,05,03,08,53,40.20
2010,05,03,08,54,35.40
2010,05,03,08,55,45.10
2010,05,03,08,56,33.80
2010,05,03,08,57,59.50
2010,05,03,08,58,40.20
2010,05,03,08,59,29.00
2010,05,03,09,00,37.00
2010,05,03,09,01,41.80
2010,05,03,09,02,35.40
2010,05,03,09,03,45.10
2010,05,03,09,04,48.30
2010,05,03,09,05,33.80
2010,05,03,09,06,33.80
2010,05,03,09,07,45.10
2010,05,03,09,08,43.50
2010,05,03,09,09,41.80
2010,05,03,09,10,41.80
2010,05,03,09,11,37.00
2010,05,03,09,12,37.00
2010,05,03,09,13,41.80
2010,05,03,09,14,49.90
2010,05,03,09,15,33.80
2010,05,03,09,16,33.80
2010,05,03,09,17,33.80
2010,05,03,09,18,40.20
2010,05,03,09,19,38.60
2010,05,03,09,20,24.20
2010,05,03,09,21,25.70
2010,05,03,09,22,29.00
2010,05,03,09,23,46.70
2010,05,03,09,24,38.60
2010,05,03,09,25,33.80
2010,05,03,09,26,43.50
2010,05,03,09,27,46.70
2010,05,03,09,28,38.60
2010,05,03,09,29,29.00
2010,05,03,09,30,25.70
2010,05,03,09,31,25.70
2010,05,03,09,32,22.50
2010,05,03,09,33,17.70
2010,05,03,09,34,35.40
2010,05,03,09,35,17.70
2010,05,03,09,36,30.60
2010,05,03,09,37,40.20
2010,05,03,09,38,25.70
2010,05,03,09,39,22.50
2010,05,03,09,40,20.90
2010,05,03,09,41,33.80
2010,05,03,09,42,33.80
2010,05,03,09,43,30.60
2010,05,03,09,44,29.00
2010,05,03,09,45,27.40
2010,05,03,09,46,25.70
2010,05,03,09,47,37.00
2010,05,03,09,48,35.40
2010,05,03,09,49,32.20
2010,05,03,09,50,24.20
2010,05,03,09,51,32.20
2010,05,03,09,52,19.30
2010,05,03,09,53,32.20
2010,05,03,09,54,27.40
2010,05,03,09,55,33.80
2010,05,03,09,56,45.10
2010,05,03,09,57,41.80
2010,05,03,09,58,27.40
2010,05,03,09,59,37.00
2010,05,03,10,00,37.00
2010,05,03,10,01,32.20
2010,05,03,10,02,29.00
2010,05,03,10,03,27.40
2010,05,03,10,04,25.70
2010,05,03,10,05,29.00
2010,05,03,10,06,54.70
2010,05,03,10,07,51.50
2010,05,03,10,08,40.20
2010,05,03,10,09,30.60
2010,05,03,10,10,48.30
2010,05,03,10,11,33.80
2010,05,03,10,12,33.80
2010,05,03,10,13,32.20
2010,05,03,10,14,37.00
2010,05,03,10,15,37.00
2010,05,03,10,16,49.90
2010,05,03,10,17,45.10
2010,05,03,10,18,41.80
2010,05,03,10,19,35.40
2010,05,03,10,20,43.50
2010,05,03,10,21,35.40
2010,05,03,10,22,29.00
2010,05,03,10,23,37.00
2010,05,03,10,24,35.40
2010,05,03,10,25,32.20
2010,05,03,10,26,35.40
2010,05,03,10,27,38.60
2010,05,03,10,28,25.70
2010,05,03,10,29,24.20
2010,05,03,10,30,30.60
2010,05,03,10,31,37.00
2010,05,03,10,32,35.40
2010,05,03,10,33,35.40
2010,05,03,10,34,32.20
2010,05,03,10,35,43.50
2010,05,03,10,36,37.00
2010,05,03,10,37,40.20
2010,05,03,10,38,43.50
2010,05,03,10,39,27.40
2010,05,03,10,40,37.00
2010,05,03,10,41,33.80
2010,05,03,10,42,37.00
2010,05,03,10,43,40.20
2010,05,03,10,44,25.70
2010,05,03,10,45,32.20
2010,05,03,10,46,32.20
2010,05,03,10,47,33.80
2010,05,03,10,48,37.00
2010,05,03,10,49,19.30
2010,05,03,10,50,32.20
2010,05,03,10,51,37.00
2010,05,03,10,52,38.60
2010,05,03,10,53,27.40
2010,05,03,10,54,40.20
2010,05,03,10,55,33.80
2010,05,03,10,56,32.20
2010,05,03,10,57,33.80
2010,05,03,10,58,37.00
2010,05,03,10,59,25.70
2010,05,03,11,00,29.00
2010,05,03,11,01,29.00
2010,05,03,11,02,25.70
2010,05,03,11,03,30.60
2010,05,03,11,04,20.90
2010,05,03,11,05,20.90
2010,05,03,11,06,25.70
2010,05,03,11,07,29.00
2010,05,03,11,08,24.20
2010,05,03,11,09,33.80
2010,05,03,11,10,37.00
2010,05,03,11,11,35.40
2010,05,03,11,12,16.10
2010,05,03,11,13,37.00
2010,05,03,11,14,35.40
2010,05,03,11,15,35.40
2010,05,03,11,16,24.20
2010,05,03,11,17,24.20
2010,05,03,11,18,29.00
2010,05,03,11,19,35.40
2010,05,03,11,20,27.40
2010,05,03,11,21,30.60
2010,05,03,11,22,33.80
2010,05,03,11,23,32.20
2010,05,03,11,24,33.80
2010,05,03,11,25,29.00
2010,05,03,11,26,32.20
2010,05,03,11,27,40.20
2010,05,03,11,28,33.80
2010,05,03,11,29,32.20
2010,05,03,11,30,29.00
2010,05,03,11,31,38.60
2010,05,03,11,32,30.60
2010,05,03,11,33,24.20
2010,05,03,11,34,29.00
2010,05,03,11,35,29.00
2010,05,03,11,36,25.70
2010,05,03,11,37,32.20
2010,05,03,11,38,33.80
2010,05,03,11,39,29.00
2010,05,03,11,40,22.50
2010,05,03,11,41,20.90
2010,05,03,11,42,20.90
2010,05,03,11,43,30.60
2010,05,03,11,44,30.60
2010,05,03,11,45,38.60
2010,05,03,11,46,25.70
2010,05,03,11,47,22.50
2010,05,03,11,48,29.00
2010,05,03,11,49,32.20
2010,05,03,11,50,38.60
2010,05,03,11,51,32.20
2010,05,03,11,52,27.40
2010,05,03,11,53,27.40
2010,05,03,11,54,22.50
2010,05,03,11,55,30.60
2010,05,03,11,56,33.80
2010,05,03,11,57,27.40
2010,05,03,11,58,37.00
2010,05,03,11,59,37.00
2010,05,03,12,00,11.30
2010,05,03,12,01,20.90
2010,05,03,12,02,20.90
2010,05,03,12,03,25.70
2010,05,03,12,04,19.30
2010,05,03,12,05,25.70
2010,05,03,12,06,37.00
2010,05,03,12,07,37.00
2010,05,03,12,08,25.70
2010,05,03,12,09,32.20
2010,05,03,12,10,25.70
2010,05,03,12,11,37.00
2010,05,03,12,12,43.50
2010,05,03,12,13,32.20
2010,05,03,12,14,32.20
2010,05,03,12,15,37.00
2010,05,03,12,16,32.20
2010,05,03,12,17,24.20
2010,05,03,12,18,37.00
2010,05,03,12,19,46.70
2010,05,03,12,20,38.60
2010,05,03,12,21,24.20
2010,05,03,12,22,33.80
2010,05,03,12,23,22.50
2010,05,03,12,24,24.20
2010,05,03,12,25,32.20
2010,05,03,12,26,32.20
2010,05,03,12,27,27.40
2010,05,03,12,28,20.90
2010,05,03,12,29,27.40
2010,05,03,12,30,25.70
2010,05,03,12,31,24.20
2010,05,03,12,32,17.70
2010,05,03,12,33,24.20
2010,05,03,12,34,19.30
2010,05,03,12,35,19.30
2010,05,03,12,36,22.50
2010,05,03,12,37,33.80
2010,05,03,12,38,35.40
2010,05,03,12,39,24.20
2010,05,03,12,40,29.00
2010,05,03,12,41,27.40
2010,05,03,12,42,25.70
2010,05,03,12,43,27.40
2010,05,03,12,44,45.10
2010,05,03,12,45,22.50
2010,05,03,12,46,41.80
2010,05,03,12,47,27.40
2010,05,03,12,48,30.60
2010,05,03,12,49,22.50
2010,05,03,12,50,38.60
2010,05,03,12,51,37.00
2010,05,03,12,52,41.80
2010,05,03,12,53,30.60
2010,05,03,12,54,30.60
2010,05,03,12,55,27.40
2010,05,03,12,56,37.00
2010,05,03,12,57,22.50
2010,05,03,12,58,30.60
2010,05,03,12,59,25.70
2010,05,03,13,00,17.70
2010,05,03,13,01,17.70
2010,05,03,13,02,19.30
2010,05,03,13,03,25.70
2010,05,03,13,04,17.70
2010,05,03,13,05,22.50
2010,05,03,13,06,17.70
2010,05,03,13,07,17.70
2010,05,03,13,08,20.90
2010,05,03,13,09,11.30
2010,05,03,13,10,17.70
2010,05,03,13,11,19.30
2010,05,03,13,12,14.50
2010,05,03,13,13,17.70
2010,05,03,13,14,19.30
2010,05,03,13,15,19.30
2010,05,03,13,16,24.20
2010,05,03,13,17,24.20
2010,05,03,13,18,27.40
2010,05,03,13,19,19.30
2010,05,03,13,20,24.20
2010,05,03,13,21,22.50
2010,05,03,13,22,17.70
2010,05,03,13,23,20.90
2010,05,03,13,24,35.40
2010,05,03,13,25,25.70
2010,05,03,13,26,20.90
2010,05,03,13,27,16.10
2010,05,03,13,28,16.10
2010,05,03,13,29,17.70
2010,05,03,13,30,11.30
2010,05,03,13,31,16.10
2010,05,03,13,32,9.60
2010,05,03,13,33,9.60
2010,05,03,13,34,8.10
2010,05,03,13,35,6.40
2010,05,03,13,36,4.80
2010,05,03,13,37,8.10
2010,05,03,13,38,12.90
2010,05,03,13,39,12.90
2010,05,03,13,40,9.60
2010,05,03,13,41,4.80
2010,05,03,13,42,6.40
2010,05,03,13,43,3.20
2010,05,03,13,45,11.30
2010,05,03,13,46,16.10
2010,05,03,13,47,9.60
2010,05,03,13,48,6.40
2010,05,03,13,49,9.60
2010,05,03,13,50,16.10
2010,05,03,13,51,9.60
2010,05,03,13,52,9.60
2010,05,03,13,53,12.90
2010,05,03,13,54,14.50
2010,05,03,13,55,9.60
2010,05,03,13,56,16.10
2010,05,03,13,57,20.90
2010,05,03,13,58,12.90
2010,05,03,13,59,8.10
2010,05,03,14,00,17.70
2010,05,03,14,01,9.60
2010,05,03,14,02,16.10
2010,05,03,14,03,11.30
2010,05,03,14,04,4.80
2010,05,03,14,05,6.40
2010,05,03,14,06,17.70
2010,05,03,14,07,8.10
2010,05,03,14,08,9.60
2010,05,03,14,09,19.30
2010,05,03,14,10,16.10
2010,05,03,14,11,12.90
2010,05,03,14,12,9.60
2010,05,03,14,13,8.10
2010,05,03,14,14,4.80
2010,05,03,14,15,16.10
2010,05,03,14,16,9.60
2010,05,03,14,17,8.10
2010,05,03,14,18,11.30
2010,05,03,14,19,11.30
2010,05,03,14,20,14.50
2010,05,03,14,21,9.60
2010,05,03,14,22,8.10
2010,05,03,14,23,6.40
2010,05,03,14,24,1.60
2010,05,03,14,25,8.10
2010,05,03,14,26,6.40
2010,05,03,14,27,9.60
2010,05,03,14,28,8.10
2010,05,03,14,29,6.40
2010,05,03,14,30,11.30
2010,05,03,14,31,8.10
2010,05,03,14,32,6.40
2010,05,03,14,33,4.80
2010,05,03,14,34,6.40
2010,05,03,14,35,1.60
2010,05,03,14,36,1.60
2010,05,03,14,37,4.80
2010,05,03,14,38,9.60
2010,05,03,14,39,6.40
2010,05,03,14,40,3.20
2010,05,03,14,41,3.20
2010,05,03,14,42,4.80
2010,05,03,14,43,6.40
2010,05,03,14,44,6.40
2010,05,03,14,45,6.40
2010,05,03,14,46,8.10
2010,05,03,14,47,3.20
2010,05,03,14,48,1.60
2010,05,03,14,49,4.80
2010,05,03,14,50,6.40
2010,05,03,14,51,3.20
2010,05,03,14,52,4.80
2010,05,03,14,53,6.40
2010,05,03,14,54,4.80
2010,05,03,14,55,3.20
2010,05,03,14,56,9.60
2010,05,03,14,57,11.30
2010,05,03,14,58,4.80
2010,05,03,14,59,8.10
2010,05,03,15,00,6.40
2010,05,03,15,01,6.40
2010,05,03,15,02,6.40
2010,05,03,15,03,4.80
2010,05,03,15,04,8.10
2010,05,03,15,05,6.40
2010,05,03,15,06,8.10
2010,05,03,15,07,11.30
2010,05,03,15,08,8.10
2010,05,03,15,09,8.10
2010,05,03,15,10,9.60
2010,05,03,15,11,9.60
2010,05,03,15,12,4.80
2010,05,03,15,13,4.80
2010,05,03,15,14,6.40
2010,05,03,15,15,4.80
2010,05,03,15,16,4.80
2010,05,03,15,17,8.10
2010,05,03,15,18,9.60
2010,05,03,15,19,8.10
2010,05,03,15,20,11.30
2010,05,03,15,21,11.30
2010,05,03,15,22,9.60
2010,05,03,15,23,9.60
2010,05,03,15,24,6.40
2010,05,03,15,25,12.90
2010,05,03,15,26,16.10
2010,05,03,15,27,11.30
2010,05,03,15,28,6.40
2010,05,03,15,29,8.10
2010,05,03,15,30,6.40
2010,05,03,15,31,11.30
2010,05,03,15,32,16.10
2010,05,03,15,33,11.30
2010,05,03,15,34,8.10
2010,05,03,15,35,8.10
2010,05,03,15,36,17.70
2010,05,03,15,37,14.50
2010,05,03,15,38,11.30
2010,05,03,15,39,14.50
2010,05,03,15,40,11.30
2010,05,03,15,41,11.30
2010,05,03,15,42,6.40
2010,05,03,15,43,8.10
2010,05,03,15,44,9.60
2010,05,03,15,45,11.30
2010,05,03,15,46,8.10
2010,05,03,15,47,6.40
2010,05,03,15,48,8.10
2010,05,03,15,49,9.60
2010,05,03,15,50,9.60
2010,05,03,15,51,9.60
2010,05,03,15,52,8.10
2010,05,03,15,53,9.60
2010,05,03,15,54,9.60
2010,05,03,15,55,19.30
2010,05,03,15,56,17.70
2010,05,03,15,57,22.50
2010,05,03,15,58,11.30
2010,05,03,15,59,12.90
2010,05,03,16,00,8.10
2010,05,03,16,01,9.60
2010,05,03,16,02,8.10
2010,05,03,16,03,4.80
2010,05,03,16,04,4.80
2010,05,03,16,05,4.80
2010,05,03,16,06,14.50
2010,05,03,16,07,14.50
2010,05,03,16,08,8.10
2010,05,03,16,09,14.50
2010,05,03,16,10,6.40
2010,05,03,16,11,12.90
2010,05,03,16,12,11.30
2010,05,03,16,13,19.30
2010,05,03,16,14,19.30
2010,05,03,16,15,17.70
2010,05,03,16,16,20.90
2010,05,03,16,17,17.70
2010,05,03,16,18,6.40
2010,05,03,16,19,6.40
2010,05,03,16,20,8.10
2010,05,03,16,21,6.40
2010,05,03,16,22,3.20
2010,05,03,16,23,3.20
2010,05,03,16,24,3.20
2010,05,03,16,25,8.10
2010,05,03,16,26,14.50
2010,05,03,16,27,14.50
2010,05,03,16,28,16.10
2010,05,03,16,29,11.30
2010,05,03,16,30,9.60
2010,05,03,16,31,9.60
2010,05,03,16,32,11.30
2010,05,03,16,33,4.80
2010,05,03,16,34,9.60
2010,05,03,16,35,11.30
2010,05,03,16,36,6.40
2010,05,03,16,37,9.60
2010,05,03,16,38,8.10
2010,05,03,16,39,6.40
2010,05,03,16,40,11.30
2010,05,03,16,41,8.10
2010,05,03,16,42,9.60
2010,05,03,16,43,16.10
2010,05,03,16,44,11.30
2010,05,03,16,45,9.60
2010,05,03,16,46,9.60
2010,05,03,16,47,9.60
2010,05,03,16,48,11.30
2010,05,03,16,49,14.50
2010,05,03,16,50,9.60
2010,05,03,16,51,8.10
2010,05,03,16,52,6.40
2010,05,03,16,53,6.40
2010,05,03,16,54,8.10
2010,05,03,16,55,12.90
2010,05,03,16,56,14.50
2010,05,03,16,57,12.90
2010,05,03,16,58,14.50
2010,05,03,16,59,11.30
2010,05,03,17,00,6.40
2010,05,03,17,01,4.80
2010,05,03,17,02,17.70
2010,05,03,17,03,11.30
2010,05,03,17,04,6.40
2010,05,03,17,05,11.30
2010,05,03,17,06,14.50
2010,05,03,17,07,14.50
2010,05,03,17,08,11.30
2010,05,03,17,09,17.70
2010,05,03,17,10,17.70
2010,05,03,17,11,12.90
2010,05,03,17,12,14.50
2010,05,03,17,13,17.70
2010,05,03,17,14,16.10
2010,05,03,17,15,16.10
2010,05,03,17,16,11.30
2010,05,03,17,17,6.40
2010,05,03,17,18,6.40
2010,05,03,17,19,11.30
2010,05,03,17,20,19.30
2010,05,03,17,21,20.90
2010,05,03,17,22,14.50
2010,05,03,17,23,20.90
2010,05,03,17,24,25.70
2010,05,03,17,25,19.30
2010,05,03,17,26,17.70
2010,05,03,17,27,17.70
2010,05,03,17,28,16.10
2010,05,03,17,29,20.90
2010,05,03,17,30,16.10
2010,05,03,17,31,9.60
2010,05,03,17,32,6.40
2010,05,03,17,33,8.10
2010,05,03,17,34,14.50
2010,05,03,17,35,14.50
2010,05,03,17,36,14.50
2010,05,03,17,37,11.30
2010,05,03,17,38,17.70
2010,05,03,17,39,25.70